Notices

What's New in latest Release from April 7th, 2021:

- Updated Glossary, including Speed of Maximum Gust, and Total Hourly Precipitation

- Updated national and regional climate services offices contacts and prices information

- Addition of station inventory lists for 1981-2010, 1971-2000, and 1961-1990 Normals.

If you haven't already, please take our survey and provide feedback about our website: https://eccc.sondage-survey.ca/f/LanguageSelection.aspx?s=442ca660-fcf1-47c0-95a9-59707d6fd709

Hourly Data Report for January 30, 2021

STE-ANNE-DE-BELLEVUE 1
QUEBEC
Current Station Operator: ECCC - MSC

45°25'38.000" N
73°55'45.000" W
39.00 m
702FHL8
71377
WVQ

Download Data

Hourly Data (January 2021)
Hourly Data Report for January 30, 2021
TIME
LST
Temp Definition
°C
Dew Point Definition
°C
Rel Hum Definition
%
Precip. Amount Definition
mm

Wind Dir Definition
10's deg

Wind Spd Definition
km/h
Visibility Definition
km
Stn Press Definition
kPa
Hmdx Definition


Wind Chill Definition


Weather Definition


00:00 -15.6 -19.3 73 0.0 26 7   102.01   -21 LegendNANA
01:00 -14.7 -18.8 71 0.0 27 8   102.01   -20 LegendNANA
02:00 -14.4 -18.4 72 0.0 25 7   102.01   -19 LegendNANA
03:00 -14.1 -18.2 71 0.0 25 9   102.01   -20 LegendNANA
04:00 -13.9 -18.1 71 0.0 27 12   102.00   -21 LegendNANA
05:00 -14.1 -18.4 70 0.0 29 9   102.04   -20 LegendNANA
06:00 -14.3 -18.7 69 0.0 28 11   102.08   -21 LegendNANA
07:00 -14.3 -18.6 70 0.0 28 10   102.12   -20 LegendNANA
08:00 -14.8 -18.2 75 0.0 26 9   102.19   -21 LegendNANA
09:00 -14.4 -18.3 72 0.0 27 9   102.23   -20 LegendNANA
10:00 -14.0 -18.2 71 0.0 28 9   102.24   -20 LegendNANA
11:00 -13.5 -18.7 65 0.0 29 8   102.22   -19 LegendNANA
12:00 -13.1 -18.5 64 0.0 27 10   102.21   -19 LegendNANA
13:00 -13.1 -17.1 72 0.0 25 15   102.23   -21 LegendNANA
14:00 -12.8 -17.7 66 0.0 25 17   102.20   -21 LegendNANA
15:00 -12.8 -17.5 68 0.0 24 14   102.20   -20 LegendNANA
16:00 -12.9 -18.0 65 0.0 25 17   102.23   -21 LegendNANA
17:00 -13.7 -18.4 67 0.0 25 16   102.28   -22 LegendNANA
18:00 -14.3 -18.9 68 0.0 25 11   102.34   -21 LegendNANA
19:00 -15.2 -19.2 71 0.0 26 9   102.38   -21 LegendNANA
20:00 -15.7 -19.5 73 0.0 27 7   102.43   -21 LegendNANA
21:00 -16.6 -20.2 74 0.0 29 6   102.43   -21 LegendNANA
22:00 -17.6 -20.0 81 0.0 30 5   102.41   -22 LegendNANA
23:00 -19.7 -21.4 87 0.0 35 3   102.40   -22 LegendNANA

Notes on Data Quality.

Legend

  • E = Estimated
  • M = Missing
  • NA = Not Available*
  • [empty] = Indicates an unobserved value
Date modified: